CST,Max TemperatureF,Mean TemperatureF,Min TemperatureF,Max Dew PointF,MeanDew PointF,Min DewpointF,Max Humidity, Mean Humidity, Min Humidity, Max Sea Level PressureIn, Mean Sea Level PressureIn, Min Sea Level PressureIn, Max VisibilityMiles, Mean VisibilityMiles, Min VisibilityMiles, Max Wind SpeedMPH, Mean Wind SpeedMPH, Max Gust SpeedMPH,PrecipitationIn, CloudCover, Events, WindDirDegrees
2013-1-1,68,58,46,68,54,41,100,92,81,30.36,30.07,29.92,10,9,5,17,10,,0.00,8,Rain,338
2013-1-2,46,44,42,41,36,34,81,76,70,30.30,30.26,30.20,10,9,7,15,11,,0.00,8,,349
2013-1-3,53,47,41,36,32,30,81,55,41,30.41,30.36,30.28,10,10,10,13,10,,0.00,6,,11
2013-1-4,64,55,46,36,33,30,66,57,30,30.50,30.42,30.37,10,10,10,12,8,,0.00,7,Rain,29
2013-1-5,46,45,44,46,44,37,100,95,71,30.39,30.32,30.26,10,7,2,10,6,,0.00,8,Rain,10
2013-1-6,59,50,42,46,41,37,100,76,51,30.37,30.30,30.24,10,8,2,15,9,,0.00,4,,349
2013-1-7,59,50,41,45,41,37,93,72,48,30.32,30.23,30.10,10,10,10,8,4,,0.00,4,,64
2013-1-8,62,56,51,61,56,43,100,94,67,30.10,29.99,29.90,10,5,1,15,9,22,0.00,8,Rain-Thunderstorm,84
2013-1-9,64,62,60,64,63,61,100,99,94,30.05,29.95,29.78,9,6,1,29,12,38,0.00,8,Rain-Thunderstorm,107
2013-1-10,71,62,53,63,57,48,100,90,43,30.10,30.04,29.99,10,9,5,12,5,,0.00,4,,208
2013-1-11,71,60,50,64,56,46,100,86,60,30.07,29.97,29.90,10,6,0,12,4,,0.00,5,Fog,123
2013-1-12,75,73,71,73,71,70,100,93,88,29.91,29.84,29.76,10,6,2,21,13,28,0.00,8,Rain,169
2013-1-13,71,56,42,70,46,37,100,84,66,30.12,30.00,29.80,10,9,5,21,13,30,0.00,7,Rain,341
2013-1-14,46,44,42,43,37,34,100,76,62,30.22,30.14,30.08,10,8,3,16,11,,0.00,8,Rain,14
2013-1-15,42,40,37,39,37,34,100,89,76,30.16,30.10,30.05,10,8,5,15,10,,0.00,8,,343
2013-1-16,51,44,37,34,26,21,87,53,32,30.30,30.25,30.18,10,10,9,16,11,18,0.00,3,,304
2013-1-17,62,48,33,34,28,21,75,46,29,30.46,30.38,30.29,10,10,7,13,2,,0.00,0,,324
2013-1-18,62,52,41,39,35,27,76,58,26,30.54,30.46,30.39,10,10,10,9,2,,0.00,1,,89
2013-1-19,69,55,41,54,45,36,94,76,43,30.38,30.29,30.22,10,8,0,9,2,,0.00,4,Fog,146
2013-1-20,69,58,46,59,50,46,100,83,52,30.29,30.22,30.15,10,6,0,8,1,,0.00,4,Fog,131
2013-1-21,75,62,48,57,50,45,100,76,41,30.27,30.20,30.17,10,8,0,6,1,,0.00,4,Fog,153
2013-1-22,71,60,50,54,48,43,94,75,35,30.34,30.28,30.22,10,8,2,10,2,,0.00,0,Fog,93
2013-1-23,75,62,50,64,56,48,100,87,53,30.37,30.30,30.26,10,6,0,13,3,,0.00,2,Fog,171
2013-1-24,80,68,57,66,62,57,100,89,54,30.32,30.23,30.18,10,6,0,15,4,,0.00,3,Fog,190
2013-1-25,80,68,57,66,61,57,100,84,48,30.21,30.15,30.10,10,6,0,14,4,,0.00,4,Fog,190
2013-1-26,78,69,60,73,63,59,100,87,57,30.22,30.17,30.12,10,7,0,12,2,15,0.00,5,Fog,144
2013-1-27,77,68,60,68,66,59,100,90,74,30.16,30.12,30.07,10,8,5,18,7,23,0.00,6,Fog-Rain,143
2013-1-28,78,74,69,70,68,64,94,85,65,30.14,30.07,29.99,10,10,10,18,12,24,0.00,7,,159
2013-1-29,75,68,60,72,70,59,100,93,88,29.98,29.80,29.65,9,6,5,21,15,33,0.00,8,Rain,170
2013-1-30,60,54,46,59,33,19,94,45,22,30.25,30.02,29.80,10,10,7,28,12,40,0.00,3,,307
2013-1-31,69,54,39,32,28,25,57,42,18,30.33,30.28,30.23,10,10,10,15,4,,0.00,3,,181